CCA931 ZBAA-EDDF

Flight info

Callsign CCA931
Flight time 2h 15m
Altitude 32100
Route IDKEX2G IDKEX B339 POLHO Y520 SERNA/K0917F340 A822 LONKA R497 KUMOD N869 LITUN T580 ZENKO/K0895F360 T580 POBEM N869 DURTI L29 LAFAT/N0480F360 DCT SUWGI L735 GOVEN DCT SULED DCT KERAX KERAX5A
Aircraft B77W/H-SDE1E2E3FGHIJ2J3J4J5M1RWXY/LB1D1

Departure

Time 2026-05-05 13:46
Airport Beijing Capital International Airport (ZBAA)

Arrival

Time 2026-05-05 16:01
Airport Frankfurt Main Airport (EDDF)
Time Latitude Longitude Altitude Speed Heading
2026-05-05 13:40 40.08531 116.61001 126 ft 15 kts 353°
2026-05-05 13:40 40.08634 116.60985 126 ft 15 kts 353°
2026-05-05 13:41 40.08738 116.60969 126 ft 15 kts 353°
2026-05-05 13:41 40.08842 116.60952 127 ft 15 kts 353°
2026-05-05 13:41 40.08946 116.60936 126 ft 15 kts 353°
2026-05-05 13:41 40.09049 116.60919 126 ft 15 kts 353°
2026-05-05 13:42 40.09141 116.60905 126 ft 7 kts 353°
2026-05-05 13:42 40.09182 116.60921 126 ft 6 kts 46°
2026-05-05 13:42 40.09192 116.60978 126 ft 7 kts 83°
2026-05-05 13:42 40.09197 116.61038 129 ft 7 kts 83°
2026-05-05 13:43 40.09203 116.61096 124 ft 7 kts 83°
2026-05-05 13:43 40.09208 116.61159 127 ft 7 kts 83°
2026-05-05 13:43 40.09215 116.61221 125 ft 7 kts 91°
2026-05-05 13:43 40.09184 116.61247 124 ft 4 kts 170°
2026-05-05 13:44 40.09182 116.61248 125 ft 0 kts 171°
2026-05-05 13:45 40.09132 116.61257 126 ft 27 kts 172°
2026-05-05 13:45 40.08697 116.61328 127 ft 98 kts 173°
2026-05-05 13:45 40.07803 116.61469 126 ft 159 kts 173°
2026-05-05 13:45 40.06549 116.61666 170 ft 198 kts 173°
2026-05-05 13:46 40.05156 116.61902 573 ft 207 kts 173°
2026-05-05 13:46 40.03783 116.62386 1344 ft 203 kts 154°
2026-05-05 13:46 40.02799 116.63736 2078 ft 210 kts 136°
2026-05-05 13:46 40.01779 116.65209 2223 ft 227 kts 143°
2026-05-05 13:47 40.00612 116.66618 2562 ft 237 kts 146°
2026-05-05 13:47 39.99325 116.68086 2970 ft 248 kts 143°
2026-05-05 13:47 39.98346 116.70010 3301 ft 275 kts 114°
2026-05-05 13:47 39.98169 116.72580 3804 ft 293 kts 88°
2026-05-05 13:48 39.98480 116.75241 4311 ft 299 kts 85°
2026-05-05 13:48 39.98800 116.77912 4856 ft 298 kts 85°
2026-05-05 13:48 39.99117 116.80624 4947 ft 306 kts 85°
2026-05-05 13:48 39.99432 116.83361 4956 ft 305 kts 85°
2026-05-05 13:49 39.99743 116.86091 5477 ft 301 kts 85°
2026-05-05 13:49 40.00043 116.88777 6274 ft 296 kts 84°
2026-05-05 13:49 40.00336 116.91437 6901 ft 297 kts 84°
2026-05-05 13:49 40.00631 116.94114 7462 ft 300 kts 83°
2026-05-05 13:50 40.00929 116.96814 8039 ft 302 kts 83°
2026-05-05 13:50 40.01228 116.99532 8626 ft 304 kts 83°
2026-05-05 13:50 40.01524 117.02232 9218 ft 305 kts 82°
2026-05-05 13:50 40.02135 117.04873 9636 ft 309 kts 57°
2026-05-05 13:51 40.03600 117.06902 10037 ft 309 kts 30°
2026-05-05 13:51 40.05596 117.07958 10380 ft 314 kts
2026-05-05 13:51 40.07810 117.07870 10509 ft 325 kts 342°
2026-05-05 13:51 40.09973 117.06957 10652 ft 340 kts 338°
2026-05-05 13:52 40.12261 117.05870 10810 ft 360 kts 337°
2026-05-05 13:52 40.14662 117.04707 11135 ft 374 kts 336°
2026-05-05 13:52 40.17127 117.03515 11715 ft 381 kts 336°
2026-05-05 13:52 40.19618 117.02318 12551 ft 382 kts 336°
2026-05-05 13:53 40.22113 117.01127 13456 ft 382 kts 336°
2026-05-05 13:53 40.24632 116.99929 14187 ft 385 kts 336°
2026-05-05 13:53 40.27172 116.98726 14822 ft 391 kts 337°
2026-05-05 13:53 40.29745 116.97508 15482 ft 395 kts 337°
2026-05-05 13:54 40.42864 116.91311 18766 ft 411 kts 337°
2026-05-05 13:54 40.84041 116.71761 26755 ft 439 kts 336°
2026-05-05 13:54 41.30515 116.48718 31134 ft 457 kts 328°
2026-05-05 13:54 41.73858 116.12881 32232 ft 470 kts 326°
2026-05-05 13:55 42.17791 115.74947 31935 ft 462 kts 319°
2026-05-05 13:55 42.60079 115.35313 31638 ft 451 kts 319°
2026-05-05 13:55 43.00351 114.96888 31710 ft 437 kts 319°
2026-05-05 13:55 43.40685 114.58782 32002 ft 445 kts 319°
2026-05-05 13:56 44.22974 113.79717 31907 ft 445 kts 317°
2026-05-05 13:56 44.62280 113.41033 31930 ft 429 kts 316°
2026-05-05 13:56 45.00291 113.01452 31938 ft 421 kts 313°
2026-05-05 13:57 45.37927 112.60470 32191 ft 432 kts 313°
2026-05-05 13:57 45.76095 112.18215 32053 ft 431 kts 311°
2026-05-05 13:57 46.13273 111.76248 31928 ft 423 kts 311°
2026-05-05 13:57 46.50087 111.33909 32104 ft 422 kts 313°
2026-05-05 13:58 47.24081 110.46800 32302 ft 439 kts 313°
2026-05-05 13:58 48.00494 109.53276 32129 ft 447 kts 314°
2026-05-05 13:59 48.76144 108.56814 32350 ft 448 kts 316°
2026-05-05 13:59 49.14265 108.06748 32463 ft 460 kts 316°
2026-05-05 14:00 49.71630 107.29276 34355 ft 484 kts 317°
2026-05-05 14:00 49.98383 106.92396 34392 ft 485 kts 317°
2026-05-05 14:00 50.37719 106.35840 34018 ft 475 kts 310°
2026-05-05 14:00 50.70334 105.73777 34018 ft 452 kts 310°
2026-05-05 14:01 51.02394 105.12602 34320 ft 453 kts 310°
2026-05-05 14:01 51.34734 104.49535 34490 ft 465 kts 310°
2026-05-05 14:01 51.67341 103.84143 34303 ft 468 kts 310°
2026-05-05 14:01 51.99473 103.18360 34244 ft 462 kts 310°
2026-05-05 14:02 52.61461 101.85735 34275 ft 456 kts 309°
2026-05-05 14:02 53.21160 100.51029 34312 ft 452 kts 309°
2026-05-05 14:03 53.78619 99.14324 34244 ft 440 kts 308°
2026-05-05 14:03 54.06133 98.46251 34104 ft 433 kts 308°
2026-05-05 14:03 54.24491 97.99673 34108 ft 425 kts 307°
2026-05-05 14:04 54.37640 97.65776 34221 ft 428 kts 307°
2026-05-05 14:04 54.50815 97.31361 34270 ft 437 kts 307°
2026-05-05 14:04 54.64136 96.96069 34155 ft 435 kts 306°
2026-05-05 14:04 54.76911 96.61307 34068 ft 426 kts 303°
2026-05-05 14:05 54.98097 95.88341 34194 ft 425 kts 300°
2026-05-05 14:05 55.30665 94.74018 34086 ft 424 kts 302°
2026-05-05 14:06 55.61912 93.79930 34112 ft 427 kts 301°
2026-05-05 14:06 55.84958 93.06129 34081 ft 428 kts 299°
2026-05-05 14:07 56.07396 92.31058 34005 ft 430 kts 298°
2026-05-05 14:07 56.29252 91.55646 34047 ft 427 kts 298°
2026-05-05 14:08 56.50780 90.78944 34039 ft 428 kts 297°
2026-05-05 14:08 56.88284 89.38823 33903 ft 427 kts 297°
2026-05-05 14:09 57.28041 87.79949 33981 ft 426 kts 295°
2026-05-05 14:09 57.64887 86.21487 33850 ft 406 kts 294°
2026-05-05 14:10 57.97305 84.71197 33878 ft 400 kts 292°
2026-05-05 14:10 58.13546 83.91505 33935 ft 412 kts 291°
2026-05-05 14:11 58.29294 83.11139 33832 ft 400 kts 290°
2026-05-05 14:11 58.40506 82.28766 33952 ft 409 kts 283°
2026-05-05 14:12 58.50358 81.42694 33840 ft 412 kts 282°
2026-05-05 14:12 58.59390 80.58474 33919 ft 408 kts 281°
2026-05-05 14:13 58.63782 80.15364 33938 ft 419 kts 280°
2026-05-05 14:13 58.68120 79.71266 33917 ft 428 kts 279°
2026-05-05 14:13 58.79950 78.88355 33801 ft 419 kts 283°
2026-05-05 14:14 58.91827 78.01537 33942 ft 425 kts 282°
2026-05-05 14:14 59.03476 77.11476 33842 ft 436 kts 282°
2026-05-05 14:15 59.22966 75.58166 33866 ft 428 kts 282°
2026-05-05 14:15 59.33604 74.66381 33989 ft 438 kts 281°
2026-05-05 14:15 59.43902 73.71637 34022 ft 450 kts 280°
2026-05-05 14:16 59.47692 73.34583 33897 ft 455 kts 280°
2026-05-05 14:16 59.48928 73.22387 33887 ft 453 kts 280°
2026-05-05 14:17 59.50136 73.10312 33885 ft 450 kts 280°
2026-05-05 14:17 59.51340 72.98153 33888 ft 448 kts 280°
2026-05-05 14:18 59.52517 72.86126 33882 ft 447 kts 280°
2026-05-05 14:18 59.53449 72.76520 33890 ft 448 kts 280°
2026-05-05 14:19 59.54613 72.64413 33899 ft 451 kts 280°
2026-05-05 14:19 59.55774 72.52217 33898 ft 454 kts 280°
2026-05-05 14:20 59.56930 72.39944 33918 ft 455 kts 280°
2026-05-05 14:20 59.64738 71.53431 33883 ft 461 kts 279°
2026-05-05 14:21 59.73049 70.52843 33877 ft 464 kts 279°
2026-05-05 14:21 59.80631 69.51207 33883 ft 467 kts 278°
2026-05-05 14:22 59.87459 68.48544 33912 ft 467 kts 278°
2026-05-05 14:22 59.93472 67.45743 33855 ft 467 kts 277°
2026-05-05 14:23 59.98666 66.43025 33866 ft 463 kts 277°
2026-05-05 14:23 60.03014 65.41077 33870 ft 461 kts 276°
2026-05-05 14:24 60.06573 64.38888 33914 ft 459 kts 275°
2026-05-05 14:24 60.09336 63.37012 33814 ft 456 kts 275°
2026-05-05 14:25 60.11297 62.35903 33818 ft 451 kts 274°
2026-05-05 14:25 60.12475 61.36245 33800 ft 447 kts 272°
2026-05-05 14:26 60.12814 60.20534 33872 ft 443 kts 269°
2026-05-05 14:26 60.10715 59.14319 33726 ft 441 kts 268°
2026-05-05 14:26 60.08128 58.16293 33798 ft 440 kts 267°
2026-05-05 14:27 60.01084 56.21358 33710 ft 438 kts 265°
2026-05-05 14:27 59.89898 54.29921 33739 ft 437 kts 262°
2026-05-05 14:28 59.74780 52.38225 33694 ft 439 kts 261°
2026-05-05 14:28 59.54782 50.52811 33553 ft 445 kts 246°
2026-05-05 14:29 59.45988 50.07541 33687 ft 441 kts 251°
2026-05-05 14:29 59.37226 49.62438 33725 ft 442 kts 250°
2026-05-05 14:29 59.19186 48.72694 33672 ft 443 kts 249°
2026-05-05 14:30 59.00535 47.83841 33720 ft 444 kts 249°
2026-05-05 14:30 58.81257 46.95512 33718 ft 446 kts 248°
2026-05-05 14:31 58.61556 46.08692 33695 ft 445 kts 247°
2026-05-05 14:31 58.46250 45.19026 33744 ft 443 kts 255°
2026-05-05 14:32 58.33294 44.27983 33756 ft 444 kts 255°
2026-05-05 14:32 58.19754 43.37593 33734 ft 444 kts 254°
2026-05-05 14:33 58.05712 42.48827 33758 ft 441 kts 253°
2026-05-05 14:33 57.91114 41.61060 33779 ft 437 kts 253°
2026-05-05 14:34 57.76116 40.74415 33737 ft 437 kts 252°
2026-05-05 14:34 57.60514 39.88346 33762 ft 436 kts 251°
2026-05-05 14:35 57.44392 39.03022 33782 ft 435 kts 251°
2026-05-05 14:35 57.27750 38.18807 33774 ft 435 kts 250°
2026-05-05 14:36 57.09574 37.36221 33777 ft 434 kts 246°
2026-05-05 14:36 56.89078 36.57217 33770 ft 430 kts 246°
2026-05-05 14:37 56.67985 35.78571 33816 ft 431 kts 246°
2026-05-05 14:37 56.46247 35.00159 33832 ft 436 kts 245°
2026-05-05 14:38 56.23917 34.22382 33820 ft 439 kts 245°
2026-05-05 14:38 56.00874 33.44682 33840 ft 442 kts 244°
2026-05-05 14:39 55.81565 32.65087 33872 ft 435 kts 259°
2026-05-05 14:39 55.70485 31.81100 33868 ft 439 kts 258°
2026-05-05 14:40 55.58622 30.96979 33836 ft 439 kts 257°
2026-05-05 14:40 55.45871 30.14387 33837 ft 438 kts 256°
2026-05-05 14:41 55.33078 29.31554 33839 ft 437 kts 255°
2026-05-05 14:41 55.19805 28.49467 33865 ft 435 kts 254°
2026-05-05 14:42 55.06140 27.68850 33839 ft 435 kts 253°
2026-05-05 14:42 54.91824 26.88064 33887 ft 436 kts 253°
2026-05-05 14:43 54.76900 26.07472 33845 ft 438 kts 252°
2026-05-05 14:43 54.61497 25.27733 33861 ft 437 kts 251°
2026-05-05 14:44 54.45703 24.49257 33854 ft 437 kts 250°
2026-05-05 14:44 54.29329 23.71042 33953 ft 439 kts 250°
2026-05-05 14:45 54.12275 22.92629 33892 ft 438 kts 249°
2026-05-05 14:45 53.94883 22.15608 33882 ft 438 kts 248°
2026-05-05 14:46 53.76870 21.38706 33836 ft 438 kts 247°
2026-05-05 14:46 53.58502 20.62938 33850 ft 437 kts 246°
2026-05-05 14:47 53.40590 19.86422 33886 ft 440 kts 248°
2026-05-05 14:47 53.22370 19.10259 33889 ft 441 kts 248°
2026-05-05 14:48 53.03718 18.34906 33863 ft 440 kts 248°
2026-05-05 14:48 52.87905 17.72888 33847 ft 438 kts 248°
2026-05-05 14:49 52.68393 16.98707 33878 ft 438 kts 247°
2026-05-05 14:49 52.49543 16.29247 33842 ft 436 kts 246°
2026-05-05 14:50 52.47387 16.21449 33905 ft 437 kts 246°
2026-05-05 14:50 52.44896 16.12460 33850 ft 433 kts 246°
2026-05-05 14:51 52.42408 16.03508 33853 ft 430 kts 246°
2026-05-05 14:51 52.39920 15.94594 33853 ft 429 kts 246°
2026-05-05 14:52 52.37429 15.85701 33851 ft 430 kts 246°
2026-05-05 14:52 52.34919 15.76773 33860 ft 432 kts 246°
2026-05-05 14:53 52.32401 15.67853 33860 ft 433 kts 246°
2026-05-05 14:53 52.29868 15.58913 33851 ft 434 kts 246°
2026-05-05 14:54 52.27313 15.49931 33853 ft 435 kts 246°
2026-05-05 14:54 52.24759 15.40986 33864 ft 435 kts 245°
2026-05-05 14:55 52.22196 15.32041 33839 ft 434 kts 245°
2026-05-05 14:55 52.19631 15.23125 33838 ft 434 kts 245°
2026-05-05 14:56 52.17080 15.14292 33839 ft 433 kts 245°
2026-05-05 14:56 52.14509 15.05427 33841 ft 433 kts 245°
2026-05-05 14:57 52.11878 14.96601 33819 ft 433 kts 241°
2026-05-05 14:57 52.08937 14.88159 33792 ft 427 kts 249°
2026-05-05 14:58 52.06823 14.79089 33792 ft 431 kts 246°
2026-05-05 14:58 52.04294 14.70161 33818 ft 437 kts 245°
2026-05-05 14:59 52.01793 14.61161 33839 ft 442 kts 245°
2026-05-05 14:59 51.99280 14.52013 33840 ft 444 kts 245°
2026-05-05 15:00 51.97184 14.44417 33831 ft 443 kts 245°
2026-05-05 15:00 51.94235 14.33805 33833 ft 440 kts 245°
2026-05-05 15:01 51.91731 14.24843 33835 ft 438 kts 245°
2026-05-05 15:01 51.89215 14.15884 33826 ft 438 kts 245°
2026-05-05 15:02 51.86683 14.06896 33840 ft 440 kts 245°
2026-05-05 15:02 51.84125 13.97849 33847 ft 443 kts 245°
2026-05-05 15:03 51.81547 13.88764 33838 ft 445 kts 245°
2026-05-05 15:03 51.78959 13.79684 33827 ft 445 kts 245°
2026-05-05 15:04 51.76361 13.70601 33822 ft 445 kts 245°
2026-05-05 15:04 51.73787 13.61639 33834 ft 442 kts 245°
2026-05-05 15:05 51.69897 13.48158 33849 ft 440 kts 245°
2026-05-05 15:06 51.67319 13.39264 33854 ft 440 kts 245°
2026-05-05 15:06 51.64716 13.30321 33862 ft 440 kts 245°
2026-05-05 15:07 51.62108 13.21391 33841 ft 441 kts 245°
2026-05-05 15:07 51.59487 13.12452 33842 ft 441 kts 245°
2026-05-05 15:08 51.56865 13.03538 33838 ft 440 kts 244°
2026-05-05 15:08 51.54244 12.94663 33844 ft 439 kts 244°
2026-05-05 15:09 51.51624 12.85828 33847 ft 438 kts 244°
2026-05-05 15:09 51.49015 12.77059 33831 ft 438 kts 244°
2026-05-05 15:10 51.46383 12.68246 33841 ft 438 kts 244°
2026-05-05 15:10 51.43741 12.59432 33841 ft 438 kts 243°
2026-05-05 15:11 51.41088 12.50613 33830 ft 439 kts 243°
2026-05-05 15:11 51.38433 12.41818 33815 ft 438 kts 243°
2026-05-05 15:12 51.35770 12.33031 33839 ft 440 kts 243°
2026-05-05 15:12 51.33088 12.24215 33821 ft 441 kts 243°
2026-05-05 15:13 51.30411 12.15444 33849 ft 442 kts 243°
2026-05-05 15:13 51.27706 12.06611 33848 ft 442 kts 243°
2026-05-05 15:14 51.24995 11.97796 33852 ft 442 kts 243°
2026-05-05 15:14 51.22279 11.88993 33841 ft 441 kts 242°
2026-05-05 15:15 51.19561 11.80218 33823 ft 441 kts 242°
2026-05-05 15:15 51.16856 11.71514 33834 ft 441 kts 242°
2026-05-05 15:16 51.14122 11.62750 33836 ft 442 kts 242°
2026-05-05 15:16 51.11377 11.53979 33837 ft 443 kts 242°
2026-05-05 15:17 51.08621 11.45206 33833 ft 443 kts 242°
2026-05-05 15:17 51.05856 11.36435 33840 ft 444 kts 242°
2026-05-05 15:18 51.03080 11.27660 33837 ft 444 kts 242°
2026-05-05 15:18 51.00289 11.18870 33829 ft 445 kts 241°
2026-05-05 15:19 50.97492 11.10095 33834 ft 446 kts 241°
2026-05-05 15:19 50.94712 11.01397 33780 ft 434 kts 241°
2026-05-05 15:19 50.93365 10.97192 33029 ft 434 kts 241°
2026-05-05 15:20 50.91998 10.92938 32262 ft 434 kts 241°
2026-05-05 15:20 50.90621 10.88661 31375 ft 436 kts 240°
2026-05-05 15:20 50.89233 10.84358 30521 ft 439 kts 240°
2026-05-05 15:20 50.87844 10.80055 29856 ft 438 kts 240°
2026-05-05 15:21 50.86448 10.75739 29092 ft 443 kts 240°
2026-05-05 15:21 50.85031 10.71371 28405 ft 446 kts 240°
2026-05-05 15:21 50.83618 10.67013 27699 ft 444 kts 240°
2026-05-05 15:21 50.82212 10.62687 27044 ft 442 kts 240°
2026-05-05 15:22 50.80806 10.58366 26347 ft 438 kts 240°
2026-05-05 15:22 50.79417 10.54103 25715 ft 434 kts 240°
2026-05-05 15:22 50.78036 10.49876 25077 ft 431 kts 240°
2026-05-05 15:22 50.76661 10.45679 24447 ft 429 kts 240°
2026-05-05 15:23 50.75294 10.41508 23838 ft 426 kts 240°
2026-05-05 15:23 50.73945 10.37402 23145 ft 425 kts 240°
2026-05-05 15:23 50.72586 10.33273 22449 ft 422 kts 240°
2026-05-05 15:23 50.71233 10.29169 21793 ft 419 kts 240°
2026-05-05 15:24 50.69891 10.25099 21164 ft 416 kts 240°
2026-05-05 15:24 50.68559 10.21070 20557 ft 412 kts 240°
2026-05-05 15:24 50.67240 10.17086 19954 ft 409 kts 240°
2026-05-05 15:24 50.65923 10.13117 19358 ft 406 kts 240°
2026-05-05 15:25 50.64614 10.09175 18762 ft 404 kts 241°
2026-05-05 15:25 50.63315 10.05272 18186 ft 401 kts 241°
2026-05-05 15:25 50.62022 10.01390 17539 ft 400 kts 241°
2026-05-05 15:25 50.60732 9.97526 16902 ft 399 kts 241°
2026-05-05 15:26 50.59444 9.93671 16299 ft 397 kts 241°
2026-05-05 15:26 50.58161 9.89838 15683 ft 394 kts 241°
2026-05-05 15:26 50.56888 9.86039 15114 ft 391 kts 240°
2026-05-05 15:26 50.55622 9.82268 14529 ft 388 kts 240°
2026-05-05 15:27 50.54367 9.78535 13983 ft 385 kts 240°
2026-05-05 15:27 50.53116 9.74818 13384 ft 383 kts 240°
2026-05-05 15:27 50.51871 9.71125 12770 ft 381 kts 240°
2026-05-05 15:27 50.50634 9.67460 12189 ft 378 kts 240°
2026-05-05 15:28 50.49422 9.63875 11626 ft 375 kts 241°
2026-05-05 15:28 50.48201 9.60274 11077 ft 370 kts 240°
2026-05-05 15:28 50.46800 9.56947 10754 ft 359 kts 229°
2026-05-05 15:28 50.45160 9.54085 10656 ft 350 kts 225°
2026-05-05 15:29 50.43450 9.51334 10574 ft 356 kts 224°
2026-05-05 15:29 50.41698 9.48560 10482 ft 360 kts 224°
2026-05-05 15:29 50.39928 9.45770 10381 ft 359 kts 224°
2026-05-05 15:29 50.38176 9.43015 10151 ft 355 kts 224°
2026-05-05 15:30 50.36432 9.40282 9839 ft 354 kts 224°
2026-05-05 15:30 50.34690 9.37555 9517 ft 353 kts 224°
2026-05-05 15:30 50.32950 9.34839 9205 ft 352 kts 224°
2026-05-05 15:30 50.31218 9.32142 8930 ft 350 kts 224°
2026-05-05 15:31 50.29494 9.29466 8682 ft 349 kts 224°
2026-05-05 15:31 50.27779 9.26809 8544 ft 342 kts 224°
2026-05-05 15:31 50.26174 9.24320 8323 ft 309 kts 224°
2026-05-05 15:31 50.24726 9.22071 8105 ft 280 kts 224°
2026-05-05 15:32 50.23407 9.20023 7898 ft 255 kts 224°
2026-05-05 15:32 50.22202 9.18147 7846 ft 242 kts 224°
2026-05-05 15:32 50.21023 9.16310 7740 ft 239 kts 224°
2026-05-05 15:32 50.19850 9.14486 7486 ft 236 kts 224°
2026-05-05 15:33 50.18737 9.12635 7133 ft 232 kts 234°
2026-05-05 15:33 50.18089 9.10305 6643 ft 236 kts 251°
2026-05-05 15:33 50.17560 9.07873 6302 ft 236 kts 248°
2026-05-05 15:33 50.16996 9.05481 5989 ft 234 kts 248°
2026-05-05 15:34 50.16431 9.03109 5665 ft 233 kts 248°
2026-05-05 15:34 50.15870 9.00747 5340 ft 232 kts 248°
2026-05-05 15:34 50.15316 8.98419 5193 ft 224 kts 248°
2026-05-05 15:34 50.14787 8.96188 5128 ft 213 kts 248°
2026-05-05 15:35 50.14275 8.94033 5078 ft 215 kts 248°
2026-05-05 15:35 50.13762 8.91880 5020 ft 207 kts 248°
2026-05-05 15:35 50.13277 8.89842 4976 ft 192 kts 248°
2026-05-05 15:35 50.12815 8.87902 4996 ft 197 kts 247°
2026-05-05 15:36 50.12345 8.85926 4983 ft 192 kts 248°
2026-05-05 15:36 50.11873 8.83946 4717 ft 196 kts 248°
2026-05-05 15:36 50.11403 8.81972 4452 ft 193 kts 248°
2026-05-05 15:36 50.10941 8.80030 4178 ft 189 kts 248°
2026-05-05 15:37 50.10487 8.78121 3915 ft 186 kts 248°
2026-05-05 15:37 50.10045 8.76267 3661 ft 180 kts 248°
2026-05-05 15:37 50.09610 8.74444 3408 ft 180 kts 248°
2026-05-05 15:37 50.09172 8.72608 3158 ft 182 kts 248°
2026-05-05 15:38 50.08731 8.70757 2892 ft 182 kts 249°
2026-05-05 15:38 50.08439 8.69532 2718 ft 180 kts 249°
2026-05-05 15:38 50.08013 8.67742 2438 ft 170 kts 249°
2026-05-05 15:38 50.07616 8.66078 2205 ft 163 kts 249°
2026-05-05 15:39 50.07107 8.63945 1908 ft 150 kts 249°
2026-05-05 15:39 50.06874 8.62965 1766 ft 136 kts 249°
2026-05-05 15:39 50.06546 8.61594 1609 ft 139 kts 250°
2026-05-05 15:39 50.06204 8.60160 1390 ft 142 kts 249°
2026-05-05 15:40 50.05863 8.58732 1171 ft 142 kts 249°
2026-05-05 15:40 50.05510 8.57272 1036 ft 145 kts 250°
2026-05-05 15:40 50.05167 8.55773 795 ft 146 kts 250°
2026-05-05 15:40 50.04805 8.54325 550 ft 142 kts 250°
2026-05-05 15:41 50.04492 8.52971 728 ft 132 kts 250°
2026-05-05 15:41 50.04226 8.51496 1730 ft 147 kts 266°
2026-05-05 15:41 50.04257 8.49860 3173 ft 154 kts 268°
2026-05-05 15:41 50.04246 8.48201 4132 ft 154 kts 265°
2026-05-05 15:42 50.04238 8.46337 4342 ft 198 kts 273°
2026-05-05 15:42 50.04802 8.44282 4292 ft 215 kts 313°
2026-05-05 15:42 50.06051 8.43062 4607 ft 218 kts 329°
2026-05-05 15:42 50.07432 8.42008 5005 ft 224 kts 340°
2026-05-05 15:43 50.09041 8.41774 5008 ft 241 kts
2026-05-05 15:43 50.10715 8.42216 5022 ft 247 kts 10°
2026-05-05 15:43 50.12305 8.43169 5016 ft 247 kts 36°
2026-05-05 15:44 50.15418 8.50760 4993 ft 272 kts 63°
2026-05-05 15:44 50.16301 8.53371 4999 ft 273 kts 64°
2026-05-05 15:44 50.17198 8.56027 5010 ft 280 kts 64°
2026-05-05 15:45 50.18110 8.58720 5005 ft 282 kts 63°
2026-05-05 15:45 50.19026 8.61435 4995 ft 281 kts 63°
2026-05-05 15:45 50.19930 8.64124 4989 ft 279 kts 63°
2026-05-05 15:45 50.20827 8.66797 4989 ft 277 kts 63°
2026-05-05 15:46 50.21705 8.69423 4986 ft 276 kts 64°
2026-05-05 15:46 50.22600 8.72075 4987 ft 278 kts 64°
2026-05-05 15:46 50.23503 8.74747 4986 ft 279 kts 63°
2026-05-05 15:46 50.24408 8.77431 4988 ft 279 kts 63°
2026-05-05 15:47 50.25312 8.80116 4984 ft 279 kts 63°
2026-05-05 15:47 50.25922 8.81929 4987 ft 279 kts 64°
2026-05-05 15:47 50.27118 8.85491 4979 ft 278 kts 63°
2026-05-05 15:47 50.28019 8.88176 4982 ft 279 kts 63°
2026-05-05 15:48 50.28902 8.90802 4973 ft 272 kts 63°
2026-05-05 15:48 50.29759 8.93363 4957 ft 259 kts 63°
2026-05-05 15:48 50.30573 8.95792 4964 ft 248 kts 64°
2026-05-05 15:48 50.31370 8.98165 4969 ft 245 kts 64°
2026-05-05 15:49 50.32155 9.00514 4964 ft 242 kts 64°
2026-05-05 15:49 50.32931 9.02838 4975 ft 241 kts 63°
2026-05-05 15:49 50.33710 9.05168 4973 ft 241 kts 63°
2026-05-05 15:49 50.34485 9.07484 4969 ft 240 kts 63°
2026-05-05 15:50 50.35105 9.09862 4961 ft 236 kts 84°
2026-05-05 15:50 50.34927 9.12388 4985 ft 237 kts 116°
2026-05-05 15:50 50.33923 9.14399 4976 ft 237 kts 147°
2026-05-05 15:50 50.32415 9.15271 4984 ft 233 kts 178°
2026-05-05 15:51 50.30841 9.14845 4983 ft 230 kts 199°
2026-05-05 15:51 50.29353 9.13911 4981 ft 232 kts 202°
2026-05-05 15:51 50.27877 9.12912 4983 ft 230 kts 204°
2026-05-05 15:51 50.26413 9.11929 4972 ft 228 kts 203°
2026-05-05 15:52 50.24962 9.10950 4974 ft 227 kts 204°
2026-05-05 15:52 50.23515 9.09974 4977 ft 226 kts 204°
2026-05-05 15:52 50.22192 9.08772 4981 ft 224 kts 221°
2026-05-05 15:52 50.21047 9.07070 4997 ft 229 kts 224°
2026-05-05 15:53 50.19899 9.05338 4992 ft 229 kts 223°
2026-05-05 15:53 50.18754 9.03612 4988 ft 228 kts 223°
2026-05-05 15:53 50.17612 9.01886 4992 ft 229 kts 224°
2026-05-05 15:53 50.16466 9.00154 4990 ft 229 kts 223°
2026-05-05 15:54 50.15389 8.98341 4972 ft 225 kts 238°
2026-05-05 15:54 50.14782 8.96120 4985 ft 225 kts 249°
2026-05-05 15:54 50.14230 8.93805 5001 ft 231 kts 248°
2026-05-05 15:54 50.13666 8.91471 4988 ft 225 kts 248°
2026-05-05 15:55 50.13134 8.89242 4978 ft 213 kts 248°
2026-05-05 15:55 50.12638 8.87155 5005 ft 197 kts 248°
2026-05-05 15:55 50.12172 8.85196 4917 ft 195 kts 247°
2026-05-05 15:55 50.11704 8.83233 4627 ft 195 kts 248°
2026-05-05 15:56 50.11239 8.81279 4343 ft 189 kts 248°
2026-05-05 15:56 50.10789 8.79390 4081 ft 184 kts 248°
2026-05-05 15:56 50.10346 8.77529 3830 ft 181 kts 248°
2026-05-05 15:56 50.09910 8.75701 3569 ft 182 kts 248°
2026-05-05 15:57 50.09466 8.73839 3324 ft 184 kts 248°
2026-05-05 15:57 50.09024 8.71986 3060 ft 182 kts 248°
2026-05-05 15:57 50.08593 8.70177 2802 ft 178 kts 249°
2026-05-05 15:57 50.08165 8.68385 2542 ft 176 kts 249°
2026-05-05 15:58 50.07750 8.66641 2282 ft 164 kts 249°
2026-05-05 15:58 50.07376 8.65072 2088 ft 149 kts 250°
2026-05-05 15:58 50.07028 8.63611 1861 ft 139 kts 249°
2026-05-05 15:58 50.06701 8.62243 1706 ft 133 kts 249°
2026-05-05 15:59 50.06371 8.60864 1499 ft 140 kts 250°
2026-05-05 15:59 50.06030 8.59431 1289 ft 142 kts 249°
2026-05-05 15:59 50.05684 8.57982 1071 ft 144 kts 250°
2026-05-05 15:59 50.05340 8.56523 842 ft 143 kts 248°
2026-05-05 16:00 50.04995 8.55081 648 ft 140 kts 249°
2026-05-05 16:00 50.04656 8.53680 424 ft 137 kts 248°
2026-05-05 16:00 50.04330 8.52320 353 ft 126 kts 250°
2026-05-05 16:00 50.04087 8.51303 332 ft 74 kts 249°
2026-05-05 16:01 50.03947 8.50720 325 ft 52 kts 250°
2026-05-05 16:01 50.03782 8.50304 322 ft 39 kts 220°
2026-05-05 16:01 50.03659 8.50184 324 ft 13 kts 168°
2026-05-05 16:01 50.03635 8.50304 328 ft 13 kts 76°
2026-05-05 16:02 50.03664 8.50434 331 ft 13 kts 70°
2026-05-05 16:02 50.03696 8.50570 331 ft 14 kts 70°
2026-05-05 16:02 50.03729 8.50711 334 ft 14 kts 69°
2026-05-05 16:02 50.03767 8.50866 334 ft 20 kts 69°
2026-05-05 16:03 50.03818 8.51080 337 ft 21 kts 69°
2026-05-05 16:03 50.03869 8.51290 335 ft 21 kts 70°
2026-05-05 16:03 50.03920 8.51503 338 ft 21 kts 69°
2026-05-05 16:03 50.03971 8.51715 353 ft 21 kts 70°
2026-05-05 16:04 50.04022 8.51929 348 ft 21 kts 70°
2026-05-05 16:04 50.04072 8.52142 354 ft 21 kts 70°
2026-05-05 16:04 50.04123 8.52355 358 ft 21 kts 70°
2026-05-05 16:04 50.04174 8.52568 359 ft 21 kts 69°
2026-05-05 16:05 50.04228 8.52790 362 ft 24 kts 69°
2026-05-05 16:05 50.04285 8.53029 365 ft 24 kts 69°
2026-05-05 16:05 50.04342 8.53267 371 ft 23 kts 70°
2026-05-05 16:05 50.04379 8.53421 378 ft 20 kts 70°
2026-05-05 16:06 50.04403 8.53637 380 ft 20 kts 84°
2026-05-05 16:06 50.04423 8.53927 380 ft 20 kts 84°
2026-05-05 16:06 50.04437 8.54145 380 ft 20 kts 84°
2026-05-05 16:06 50.04451 8.54363 378 ft 20 kts 84°
2026-05-05 16:07 50.04445 8.54521 375 ft 23 kts 103°
2026-05-05 16:07 50.04358 8.54726 369 ft 22 kts 141°
2026-05-05 16:07 50.04220 8.54825 364 ft 18 kts 160°
2026-05-05 16:07 50.04128 8.54877 362 ft 13 kts 160°
2026-05-05 16:08 50.04040 8.54926 364 ft 13 kts 159°
2026-05-05 16:08 50.03953 8.54979 363 ft 14 kts 159°
2026-05-05 16:08 50.03870 8.55029 363 ft 11 kts 153°
2026-05-05 16:08 50.03848 8.55098 353 ft 7 kts 81°
2026-05-05 16:09 50.03863 8.55171 359 ft 7 kts 71°
2026-05-05 16:09 50.03891 8.55293 361 ft 15 kts 70°
2026-05-05 16:09 50.03929 8.55444 362 ft 15 kts 68°
2026-05-05 16:09 50.03964 8.55598 359 ft 16 kts 70°
2026-05-05 16:10 50.04002 8.55755 361 ft 16 kts 69°
2026-05-05 16:10 50.04040 8.55910 362 ft 16 kts 70°
2026-05-05 16:10 50.04077 8.56067 363 ft 16 kts 70°
2026-05-05 16:10 50.04115 8.56225 363 ft 16 kts 70°
2026-05-05 16:11 50.04152 8.56382 362 ft 16 kts 70°
2026-05-05 16:11 50.04255 8.56815 370 ft 12 kts 69°
2026-05-05 16:12 50.04285 8.56941 369 ft 13 kts 69°
2026-05-05 16:12 50.04347 8.57201 368 ft 13 kts 70°
2026-05-05 16:13 50.04462 8.57561 373 ft 13 kts 17°
2026-05-05 16:13 50.04552 8.57525 371 ft 15 kts 338°
2026-05-05 16:13 50.04610 8.57468 368 ft 8 kts 297°
2026-05-05 16:14 50.04636 8.57295 362 ft 6 kts 296°
2026-05-05 16:14 50.04646 8.57262 367 ft 0 kts 298°